Simultaneous Nadir Overpasses (SNOs) Predictions

Prediction of SNOs between GOES-17 and METOP-C Satellite Orbit:

Table of predicted SNOs for the next 14.0 days since TLE Epoch: 3/23/2024
Index Date Time (GOES-17) GOES-17 Lat,Lon METOP-C Lat,Lon Distance(km) Time Diff (sec)
1 03/23/2024 04:44:39 0.00,-104.68 0.00,-108.46 420.86 80
2 03/24/2024 04:21:06 0.00,-104.68 0.32,-103.29 158.43 80
3 03/25/2024 16:39:57 -0.00,-104.68 0.70,-107.85 361.00 80
4 03/26/2024 16:21:57 -0.00,-104.68 -0.38,-102.85 208.57 80
5 03/28/2024 04:40:56 0.00,-104.68 -0.60,-107.45 314.45 80
6 03/29/2024 04:17:36 -0.00,-104.68 0.49,-102.44 254.78 80
7 03/30/2024 16:36:27 0.00,-104.68 0.52,-107.01 265.31 80
8 03/31/2024 16:18:26 0.01,-104.68 -0.58,-102.01 303.86 80
9 04/02/2024 04:37:25 0.00,-104.67 -0.43,-106.60 219.70 80
10 04/03/2024 04:14:04 0.00,-104.67 0.68,-101.60 349.14 80
11 04/04/2024 16:32:56 -0.00,-104.66 0.32,-106.16 171.48 80
12 04/05/2024 16:14:55 -0.00,-104.65 -0.79,-101.17 397.91 80
